Sao Jose Dos Campos, Brazil

8:25 PM BRT on September 29, 2016 (GMT -0300)
Sao Jose Dos Campos

Weather History for SBSJ - April, 2014

Change the Weather History Date:

Saturday, April 5, 2014

  Actual Average Record
Temperature  
Mean Temperature 70 °F -  
Max Temperature 80 °F 78 °F 87 °F (2012)
Min Temperature 59 °F 65 °F 57 °F (1998)
Cooling Degree Days 4    
Growing Degree Days 20 (Base 50)    
Moisture  
Dew Point 57 °F    
Average Humidity 64    
Maximum Humidity 88    
Minimum Humidity 39    
Precipitation  
Precipitation 0.00 in - - ()
Sea Level Pressure  
Sea Level Pressure 30.17 in    
Wind  
Wind Speed 4 mph ()    
Max Wind Speed 20 mph    
Max Gust Speed -    
Visibility 6.2 miles    
Events      
Averages and records for this station are not official NWS values.
T = Trace of Precipitation, MM = Missing Value Source: Averaged Metar Reports

Daily Weather History Graph

Daily Weather History Graph

Search for Another Location

Airport or City:

Trip Planner

Search our weather history database for the weather conditions in past years. The results will help you decide how hot, cold, wet, or windy it might be!

Date:

Astronomy

Apr. 05, 2014 Rise Set
Actual Time 6:13 AM BRT 5:58 PM BRT
Civil Twilight 5:50 AM BRT 6:21 PM BRT
Nautical Twilight 5:24 AM BRT 6:47 PM BRT
Astronomical Twilight 4:58 AM BRT 7:13 PM BRT
Moon 11:26 AM BRT (4/5) 10:40 PM BRT (4/5)
Length of Visible Light 12h 30m
Length of Day
11h 45m
Waxing Crescent, 34% of the Moon is Illuminated
Apr 5
Waxing Crescent
Apr 7
First Quarter
Apr 15
Full
Apr 22
Last Quarter
Apr 29
New

Hourly Weather History & Observations

Time (BRT) Temp. Heat Index Dew Point Humidity Pressure Visibility Wind Dir Wind Speed Gust Speed Precip Events Conditions
12:00 AM 68.0 °F - 57.2 °F 68% 30.21 in - Calm Calm - N/A   Clear
1:00 AM 66.2 °F - 57.2 °F 73% 30.21 in - SW 2.3 mph - N/A   Clear
2:00 AM 66.2 °F - 57.2 °F 73% 30.18 in - ESE 3.5 mph - N/A   Clear
3:00 AM 66.2 °F - 57.2 °F 73% 30.18 in - Calm Calm - N/A   Clear
4:00 AM 64.4 °F - 57.2 °F 77% 30.18 in 6.2 mi SSW 2.3 mph - N/A   Partly Cloudy
5:00 AM 64.4 °F - 57.2 °F 77% 30.18 in 6.2 mi Calm Calm - N/A   Partly Cloudy
6:00 AM 59.0 °F - 55.4 °F 88% 30.18 in 6.2 mi West 3.5 mph - N/A   Partly Cloudy
7:00 AM 62.6 °F - 57.2 °F 82% 30.21 in - Calm Calm - N/A   Clear
8:00 AM 68.0 °F - 57.2 °F 68% 30.21 in - Calm Calm - N/A   Clear
9:00 AM 71.6 °F - 59.0 °F 64% 30.24 in - ENE 11.5 mph - N/A   Clear
10:00 AM 73.4 °F - 55.4 °F 53% 30.24 in 6.2 mi NE 10.4 mph - N/A   Scattered Clouds
11:00 AM 75.2 °F - 55.4 °F 50% 30.21 in 6.2 mi East 12.7 mph - N/A   Scattered Clouds
12:00 PM 77.0 °F - 55.4 °F 47% 30.18 in 6.2 mi ENE 9.2 mph - N/A   Scattered Clouds
1:00 PM 78.8 °F - 55.4 °F 44% 30.15 in 6.2 mi ENE 6.9 mph - N/A   Scattered Clouds
2:00 PM 80.6 °F 80.5 °F 55.4 °F 42% 30.12 in - NNE 10.4 mph - N/A   Clear
3:00 PM 80.6 °F 80.3 °F 53.6 °F 39% 30.09 in 6.2 mi NNE 6.9 mph - N/A   Scattered Clouds
4:00 PM 80.6 °F 80.5 °F 55.4 °F 42% 30.09 in - Calm Calm - N/A   Clear
5:00 PM 80.6 °F 81.1 °F 59.0 °F 48% 30.09 in 6.2 mi ESE 4.6 mph - N/A   Scattered Clouds
6:00 PM 73.4 °F - 62.6 °F 69% 30.12 in 6.2 mi SE 17.3 mph - N/A   Scattered Clouds
7:00 PM 69.8 °F - 60.8 °F 73% 30.15 in - SE 19.6 mph - N/A   Clear
8:00 PM 69.8 °F - 60.8 °F 73% 30.15 in - SE 13.8 mph - N/A   Clear
9:00 PM 69.8 °F - 59.0 °F 68% 30.18 in - SE 10.4 mph - N/A   Clear
10:00 PM 68.0 °F - 59.0 °F 73% 30.18 in - ESE 9.2 mph - N/A   Clear
11:00 PM 68.0 °F - 59.0 °F 73% 30.18 in - SE 6.9 mph - N/A   Clear